Time,TemperatureF,DewpointF,PressureIn,WindDirection,WindDirectionDegrees,WindSpeedMPH,WindSpeedGustMPH,Humidity,HourlyPrecipIn,Conditions,Clouds,dailyrainin,SoftwareType,DateUTC
2013-04-22 00:02:00,39.0,17.0,30.14,ENE,61,2.0,3.0,40,0.00,,,0.00,,2013-04-22 06:02:00,
2013-04-22 00:11:00,39.0,17.0,30.14,ENE,61,2.0,3.0,40,0.00,,,0.00,,2013-04-22 06:11:00,
2013-04-22 00:21:00,39.0,17.0,30.14,NNE,12,5.0,6.0,40,0.00,,,0.00,,2013-04-22 06:21:00,
2013-04-22 00:32:00,40.0,17.0,30.14,NNE,24,3.0,6.0,39,0.00,,,0.00,,2013-04-22 06:32:00,
2013-04-22 00:41:00,40.0,17.0,30.14,NNE,24,3.0,6.0,39,0.00,,,0.00,,2013-04-22 06:41:00,
2013-04-22 00:51:00,40.0,17.0,30.14,North,11,3.0,5.0,39,0.00,,,0.00,,2013-04-22 06:51:00,
2013-04-22 01:01:00,40.0,16.0,30.13,North,0,2.0,7.0,38,0.00,,,0.00,,2013-04-22 07:01:00,
2013-04-22 01:11:00,40.0,16.0,30.13,North,0,2.0,7.0,38,0.00,,,0.00,,2013-04-22 07:11:00,
2013-04-22 01:21:00,41.0,18.0,30.13,North,9,6.0,7.0,39,0.00,,,0.00,,2013-04-22 07:21:00,
2013-04-22 01:32:00,40.0,18.0,30.13,North,0,3.0,5.0,41,0.00,,,0.00,,2013-04-22 07:32:00,
2013-04-22 01:42:00,40.0,18.0,30.13,North,0,3.0,5.0,41,0.00,,,0.00,,2013-04-22 07:42:00,
2013-04-22 01:52:00,40.0,19.0,30.14,North,352,3.0,3.0,43,0.00,,,0.00,,2013-04-22 07:52:00,
2013-04-22 02:01:00,41.0,20.0,30.14,NNE,25,2.0,3.0,43,0.00,,,0.00,,2013-04-22 08:01:00,
2013-04-22 02:11:00,41.0,20.0,30.14,NNE,25,2.0,3.0,43,0.00,,,0.00,,2013-04-22 08:11:00,
2013-04-22 02:21:00,41.0,21.0,30.13,NNE,13,2.0,5.0,44,0.00,,,0.00,,2013-04-22 08:21:00,
2013-04-22 02:32:00,41.0,21.0,30.12,North,349,5.0,5.0,45,0.00,,,0.00,,2013-04-22 08:32:00,
2013-04-22 02:41:00,41.0,21.0,30.12,North,349,5.0,5.0,45,0.00,,,0.00,,2013-04-22 08:41:00,
2013-04-22 02:52:00,41.0,21.0,30.12,NNW,339,2.0,3.0,45,0.00,,,0.00,,2013-04-22 08:52:00,
2013-04-22 03:01:00,40.0,22.0,30.11,North,353,3.0,5.0,49,0.00,,,0.00,,2013-04-22 09:01:00,
2013-04-22 03:11:00,40.0,22.0,30.11,North,353,3.0,5.0,49,0.00,,,0.00,,2013-04-22 09:11:00,
2013-04-22 03:21:00,39.0,22.0,30.10,North,356,3.0,5.0,50,0.00,,,0.00,,2013-04-22 09:21:00,
2013-04-22 03:32:00,39.0,22.0,30.11,North,357,3.0,3.0,50,0.00,,,0.00,,2013-04-22 09:32:00,
2013-04-22 03:42:00,39.0,22.0,30.11,North,357,3.0,3.0,50,0.00,,,0.00,,2013-04-22 09:42:00,
2013-04-22 03:52:00,39.0,22.0,30.11,North,352,1.0,3.0,50,0.00,,,0.00,,2013-04-22 09:52:00,
2013-04-22 04:03:00,39.0,23.0,30.10,North,353,3.0,3.0,52,0.00,,,0.00,,2013-04-22 10:03:00,
2013-04-22 04:12:00,39.0,23.0,30.10,North,353,3.0,3.0,52,0.00,,,0.00,,2013-04-22 10:12:00,
2013-04-22 04:22:00,39.0,23.0,30.10,NNW,345,2.0,3.0,52,0.00,,,0.00,,2013-04-22 10:22:00,
2013-04-22 04:32:00,39.0,23.0,30.10,ESE,113,0.0,1.0,52,0.00,,,0.00,,2013-04-22 10:32:00,
2013-04-22 04:42:00,39.0,23.0,30.10,ESE,113,0.0,1.0,52,0.00,,,0.00,,2013-04-22 10:42:00,
2013-04-22 04:52:00,38.0,22.0,30.10,East,99,0.0,0.0,52,0.00,,,0.00,,2013-04-22 10:52:00,
2013-04-22 05:02:00,38.0,22.0,30.10,East,99,0.0,2.0,51,0.00,,,0.00,,2013-04-22 11:02:00,
2013-04-22 05:11:00,38.0,22.0,30.09,East,99,2.0,3.0,51,0.00,,,0.00,,2013-04-22 11:11:00,
2013-04-22 05:22:00,38.0,22.0,30.09,East,99,2.0,3.0,51,0.00,,,0.00,,2013-04-22 11:22:00,
2013-04-22 05:32:00,38.0,22.0,30.09,East,94,3.0,3.0,51,0.00,,,0.00,,2013-04-22 11:32:00,
2013-04-22 05:42:00,38.0,22.0,30.09,East,94,3.0,3.0,51,0.00,,,0.00,,2013-04-22 11:42:00,
2013-04-22 05:52:00,38.0,22.0,30.09,East,90,3.0,3.0,53,0.00,,,0.00,,2013-04-22 11:52:00,
2013-04-22 06:01:00,39.0,21.0,30.09,East,90,1.0,3.0,49,0.00,,,0.00,,2013-04-22 12:01:00,
2013-04-22 06:12:00,39.0,22.0,30.09,North,0,3.0,3.0,50,0.00,,,0.00,,2013-04-22 12:12:00,
2013-04-22 06:21:00,39.0,22.0,30.09,North,0,3.0,3.0,50,0.00,,,0.00,,2013-04-22 12:21:00,
2013-04-22 06:31:00,39.0,21.0,30.09,NNE,20,3.0,5.0,48,0.00,,,0.00,,2013-04-22 12:31:00,
2013-04-22 06:42:00,39.0,21.0,30.09,NNE,20,3.0,5.0,48,0.00,,,0.00,,2013-04-22 12:42:00,
2013-04-22 06:52:00,40.0,19.0,30.09,NNE,24,2.0,3.0,43,0.00,,,0.00,,2013-04-22 12:52:00,
2013-04-22 07:01:00,40.0,20.0,30.09,NNE,32,0.0,3.0,44,0.00,,,0.00,,2013-04-22 13:01:00,
2013-04-22 07:11:00,40.0,20.0,30.09,NNE,32,0.0,3.0,44,0.00,,,0.00,,2013-04-22 13:11:00,
2013-04-22 07:22:00,40.0,18.0,30.09,NNE,32,2.0,3.0,41,0.00,,,0.00,,2013-04-22 13:22:00,
2013-04-22 07:31:00,40.0,18.0,30.09,NNE,32,0.0,0.0,41,0.00,,,0.00,,2013-04-22 13:31:00,
2013-04-22 07:41:00,40.0,18.0,30.09,NNE,32,0.0,0.0,41,0.00,,,0.00,,2013-04-22 13:41:00,
2013-04-22 07:52:00,41.0,19.0,30.10,NNE,30,0.0,0.0,40,0.00,,,0.00,,2013-04-22 13:52:00,
2013-04-22 08:01:00,42.0,19.0,30.10,NNE,30,0.0,0.0,40,0.00,,,0.00,,2013-04-22 14:01:00,
2013-04-22 08:11:00,44.0,21.0,30.10,NNE,30,0.0,0.0,40,0.00,,,0.00,,2013-04-22 14:11:00,
2013-04-22 08:21:00,44.0,21.0,30.10,NNE,30,0.0,0.0,40,0.00,,,0.00,,2013-04-22 14:21:00,
2013-04-22 08:33:00,47.0,20.0,30.10,ENE,61,0.0,1.0,34,0.00,,,0.00,,2013-04-22 14:33:00,
2013-04-22 08:42:00,47.0,20.0,30.10,ENE,61,0.0,1.0,34,0.00,,,0.00,,2013-04-22 14:42:00,
2013-04-22 08:51:00,50.0,20.0,30.10,SSW,213,6.0,8.0,30,0.00,,,0.00,,2013-04-22 14:51:00,
2013-04-22 09:01:00,52.0,19.0,30.10,WSW,242,6.0,7.0,27,0.00,,,0.00,,2013-04-22 15:01:00,
2013-04-22 09:22:00,52.0,19.0,30.10,West,275,7.0,16.0,27,0.00,,,0.00,,2013-04-22 15:22:00,
2013-04-22 09:33:00,51.0,18.0,30.10,West,281,9.0,21.0,27,0.00,,,0.00,,2013-04-22 15:33:00,
2013-04-22 09:42:00,51.0,18.0,30.10,West,281,9.0,21.0,27,0.00,,,0.00,,2013-04-22 15:42:00,
2013-04-22 09:53:00,49.0,17.0,30.10,West,281,9.0,15.0,28,0.00,,,0.00,,2013-04-22 15:53:00,
2013-04-22 10:02:00,50.0,18.0,30.10,WSW,251,8.0,13.0,28,0.00,,,0.00,,2013-04-22 16:02:00,
2013-04-22 10:12:00,50.0,18.0,30.10,WSW,251,8.0,13.0,28,0.00,,,0.00,,2013-04-22 16:12:00,
2013-04-22 10:22:00,51.0,18.0,30.10,WNW,285,6.0,13.0,27,0.00,,,0.00,,2013-04-22 16:22:00,
2013-04-22 10:32:00,54.0,18.0,30.09,NNE,25,2.0,3.0,24,0.00,,,0.00,,2013-04-22 16:32:00,
2013-04-22 10:41:00,54.0,18.0,30.09,NNE,25,2.0,3.0,24,0.00,,,0.00,,2013-04-22 16:41:00,
2013-04-22 10:52:00,55.0,21.0,30.09,SSE,151,7.0,10.0,26,0.00,,,0.00,,2013-04-22 16:52:00,
2013-04-22 11:02:00,54.0,19.0,30.10,West,267,9.0,12.0,25,0.00,,,0.00,,2013-04-22 17:02:00,
2013-04-22 11:12:00,54.0,19.0,30.10,West,267,9.0,12.0,25,0.00,,,0.00,,2013-04-22 17:12:00,
2013-04-22 11:21:00,53.0,18.0,30.10,WSW,238,6.0,10.0,25,0.00,,,0.00,,2013-04-22 17:21:00,
2013-04-22 11:31:00,56.0,18.0,30.10,West,265,8.0,13.0,22,0.00,,,0.00,,2013-04-22 17:31:00,
2013-04-22 11:42:00,56.0,18.0,30.10,West,265,8.0,13.0,22,0.00,,,0.00,,2013-04-22 17:42:00,
2013-04-22 11:51:00,56.0,18.0,30.09,West,277,9.0,13.0,22,0.00,,,0.00,,2013-04-22 17:51:00,
2013-04-22 12:01:00,55.0,16.0,30.09,WSW,237,9.0,14.0,21,0.00,,,0.00,,2013-04-22 18:01:00,
2013-04-22 12:12:00,55.0,16.0,30.09,WSW,237,9.0,14.0,21,0.00,,,0.00,,2013-04-22 18:12:00,
2013-04-22 12:21:00,55.0,17.0,30.09,WSW,253,7.0,9.0,22,0.00,,,0.00,,2013-04-22 18:21:00,
2013-04-22 12:32:00,55.0,16.0,30.09,WNW,287,14.0,20.0,21,0.00,,,0.00,,2013-04-22 18:32:00,
2013-04-22 12:42:00,55.0,16.0,30.09,WNW,287,14.0,20.0,21,0.00,,,0.00,,2013-04-22 18:42:00,
2013-04-22 12:52:00,55.0,16.0,30.08,NW,304,7.0,15.0,21,0.00,,,0.00,,2013-04-22 18:52:00,
2013-04-22 13:01:00,56.0,14.0,30.08,WNW,283,12.0,16.0,19,0.00,,,0.00,,2013-04-22 19:01:00,
2013-04-22 13:11:00,56.0,14.0,30.08,WNW,283,12.0,16.0,19,0.00,,,0.00,,2013-04-22 19:11:00,
2013-04-22 13:21:00,57.0,15.0,30.07,West,278,8.0,14.0,19,0.00,,,0.00,,2013-04-22 19:21:00,
2013-04-22 13:32:00,60.0,18.0,30.06,SE,135,8.0,9.0,19,0.00,,,0.00,,2013-04-22 19:32:00,
2013-04-22 13:52:00,58.0,18.0,30.06,West,267,8.0,12.0,21,0.00,,,0.00,,2013-04-22 19:52:00,
2013-04-22 14:02:00,59.0,17.0,30.06,West,265,9.0,15.0,19,0.00,,,0.00,,2013-04-22 20:02:00,
2013-04-22 14:11:00,59.0,17.0,30.06,West,265,9.0,15.0,19,0.00,,,0.00,,2013-04-22 20:11:00,
2013-04-22 14:22:00,57.0,16.0,30.05,SSE,163,5.0,6.0,20,0.00,,,0.00,,2013-04-22 20:22:00,
2013-04-22 14:31:00,58.0,17.0,30.05,NW,316,6.0,17.0,20,0.00,,,0.00,,2013-04-22 20:31:00,
2013-04-22 14:41:00,58.0,17.0,30.05,NW,316,6.0,17.0,20,0.00,,,0.00,,2013-04-22 20:41:00,
2013-04-22 14:51:00,56.0,17.0,30.05,WNW,290,8.0,12.0,21,0.00,,,0.00,,2013-04-22 20:51:00,
2013-04-22 15:01:00,58.0,16.0,30.05,WNW,289,17.0,23.0,19,0.00,,,0.00,,2013-04-22 21:01:00,
2013-04-22 15:11:00,59.0,18.0,30.03,SSE,154,6.0,9.0,20,0.00,,,0.00,,2013-04-22 21:11:00,
2013-04-22 15:21:00,59.0,18.0,30.03,SSE,154,6.0,9.0,20,0.00,,,0.00,,2013-04-22 21:21:00,
2013-04-22 15:32:00,60.0,16.0,30.05,NNW,331,7.0,12.0,18,0.00,,,0.00,,2013-04-22 21:32:00,
2013-04-22 15:42:00,60.0,16.0,30.05,NNW,331,7.0,12.0,18,0.00,,,0.00,,2013-04-22 21:42:00,
2013-04-22 15:52:00,61.0,16.0,30.04,WNW,293,6.0,10.0,17,0.00,,,0.00,,2013-04-22 21:52:00,
2013-04-22 16:02:00,59.0,17.0,30.04,ESE,118,5.0,6.0,19,0.00,,,0.00,,2013-04-22 22:02:00,
2013-04-22 16:12:00,59.0,17.0,30.04,ESE,118,5.0,6.0,19,0.00,,,0.00,,2013-04-22 22:12:00,
2013-04-22 16:22:00,62.0,18.0,30.04,South,187,7.0,9.0,18,0.00,,,0.00,,2013-04-22 22:22:00,
2013-04-22 16:32:00,60.0,16.0,30.03,WSW,252,6.0,6.0,18,0.00,,,0.00,,2013-04-22 22:32:00,
2013-04-22 16:41:00,60.0,16.0,30.03,WSW,252,6.0,6.0,18,0.00,,,0.00,,2013-04-22 22:41:00,
2013-04-22 16:52:00,64.0,18.0,30.02,East,85,2.0,6.0,17,0.00,,,0.00,,2013-04-22 22:52:00,
2013-04-22 17:02:00,69.0,19.0,30.02,NE,54,7.0,10.0,15,0.00,,,0.00,,2013-04-22 23:02:00,
2013-04-22 17:11:00,67.0,18.0,30.02,SSW,199,8.0,13.0,15,0.00,,,0.00,,2013-04-22 23:11:00,
2013-04-22 17:21:00,67.0,18.0,30.02,SSW,199,8.0,13.0,15,0.00,,,0.00,,2013-04-22 23:21:00,
2013-04-22 17:32:00,63.0,15.0,30.02,South,182,8.0,14.0,15,0.00,,,0.00,,2013-04-22 23:32:00,
2013-04-22 17:52:00,63.0,15.0,30.01,WNW,293,7.0,20.0,15,0.00,,,0.00,,2013-04-22 23:52:00,
2013-04-22 18:01:00,57.0,14.0,30.01,ESE,114,5.0,7.0,18,0.00,,,0.00,,2013-04-23 00:01:00,
2013-04-22 18:11:00,57.0,14.0,30.01,ESE,114,5.0,7.0,18,0.00,,,0.00,,2013-04-23 00:11:00,
2013-04-22 18:21:00,58.0,16.0,30.01,South,172,2.0,5.0,19,0.00,,,0.00,,2013-04-23 00:21:00,
2013-04-22 18:31:00,58.0,16.0,30.01,SW,219,3.0,7.0,19,0.00,,,0.00,,2013-04-23 00:31:00,
2013-04-22 18:41:00,58.0,16.0,30.01,SW,219,3.0,7.0,19,0.00,,,0.00,,2013-04-23 00:41:00,
2013-04-22 18:51:00,61.0,16.0,30.01,SSE,160,6.0,9.0,17,0.00,,,0.00,,2013-04-23 00:51:00,
2013-04-22 19:01:00,59.0,16.0,30.00,SE,125,9.0,13.0,18,0.00,,,0.00,,2013-04-23 01:01:00,
2013-04-22 19:11:00,59.0,16.0,30.00,SE,125,9.0,13.0,18,0.00,,,0.00,,2013-04-23 01:11:00,
2013-04-22 19:21:00,55.0,15.0,30.01,SSE,152,1.0,3.0,20,0.00,,,0.00,,2013-04-23 01:21:00,
2013-04-22 19:31:00,52.0,12.0,30.00,WNW,297,6.0,8.0,20,0.00,,,0.00,,2013-04-23 01:31:00,
2013-04-22 19:41:00,52.0,12.0,30.00,WNW,297,6.0,8.0,20,0.00,,,0.00,,2013-04-23 01:41:00,
2013-04-22 19:52:00,51.0,12.0,30.00,WNW,292,6.0,7.0,21,0.00,,,0.00,,2013-04-23 01:52:00,
2013-04-22 20:01:00,50.0,14.0,30.00,NW,307,2.0,5.0,23,0.00,,,0.00,,2013-04-23 02:01:00,
2013-04-22 20:12:00,50.0,14.0,30.00,NW,307,2.0,5.0,23,0.00,,,0.00,,2013-04-23 02:12:00,
2013-04-22 20:21:00,49.0,14.0,29.99,North,355,0.0,0.0,24,0.00,,,0.00,,2013-04-23 02:21:00,
2013-04-22 20:32:00,47.0,14.0,29.99,South,181,2.0,3.0,26,0.00,,,0.00,,2013-04-23 02:32:00,
2013-04-22 20:42:00,47.0,14.0,29.99,South,181,2.0,3.0,26,0.00,,,0.00,,2013-04-23 02:42:00,
2013-04-22 20:52:00,46.0,14.0,29.99,SSW,195,2.0,3.0,27,0.00,,,0.00,,2013-04-23 02:52:00,
2013-04-22 21:01:00,46.0,14.0,29.99,SSW,196,1.0,3.0,27,0.00,,,0.00,,2013-04-23 03:01:00,
2013-04-22 21:11:00,46.0,14.0,29.99,SSW,196,1.0,3.0,27,0.00,,,0.00,,2013-04-23 03:11:00,
2013-04-22 21:21:00,45.0,13.0,29.99,SSW,196,0.0,1.0,27,0.00,,,0.00,,2013-04-23 03:21:00,
2013-04-22 21:33:00,44.0,12.0,29.99,SSW,196,0.0,0.0,27,0.00,,,0.00,,2013-04-23 03:33:00,
2013-04-22 21:43:00,44.0,12.0,29.99,SSW,196,0.0,0.0,27,0.00,,,0.00,,2013-04-23 03:43:00,
2013-04-22 21:52:00,44.0,12.0,29.99,SSW,196,0.0,0.0,27,0.00,,,0.00,,2013-04-23 03:52:00,
2013-04-22 22:03:00,45.0,13.0,29.99,NNW,345,5.0,6.0,27,0.00,,,0.00,,2013-04-23 04:03:00,
2013-04-22 22:12:00,45.0,13.0,29.99,NNW,345,5.0,6.0,27,0.00,,,0.00,,2013-04-23 04:12:00,
2013-04-22 22:22:00,44.0,12.0,29.99,NW,315,0.0,1.0,27,0.00,,,0.00,,2013-04-23 04:22:00,
2013-04-22 22:32:00,43.0,13.0,30.00,NW,311,1.0,2.0,29,0.00,,,0.00,,2013-04-23 04:32:00,
2013-04-22 22:43:00,43.0,13.0,30.00,NW,311,1.0,2.0,29,0.00,,,0.00,,2013-04-23 04:43:00,
2013-04-22 22:52:00,43.0,14.0,29.99,North,353,0.0,0.0,30,0.00,,,0.00,,2013-04-23 04:52:00,
2013-04-22 23:02:00,43.0,14.0,29.99,North,0,0.0,0.0,30,0.00,,,0.00,,2013-04-23 05:02:00,
2013-04-22 23:12:00,43.0,14.0,29.99,North,0,0.0,0.0,30,0.00,,,0.00,,2013-04-23 05:12:00,
2013-04-22 23:21:00,43.0,14.0,29.99,NW,316,3.0,3.0,30,0.00,,,0.00,,2013-04-23 05:21:00,
2013-04-22 23:32:00,42.0,15.0,29.98,WNW,295,0.0,3.0,33,0.00,,,0.00,,2013-04-23 05:32:00,
2013-04-22 23:42:00,42.0,15.0,29.98,WNW,295,0.0,3.0,33,0.00,,,0.00,,2013-04-23 05:42:00,
2013-04-22 23:52:00,42.0,14.0,29.98,NW,305,2.0,3.0,32,0.00,,,0.00,,2013-04-23 05:52:00,